Regional Weather Roundup
Issued by NWS

Home | Current Version | Previous Version | Graphics & Text | Print | Product List | Glossary On
Versions: 1 2 3 4 5 6 7 8 9 10 11 12 13 14 15 16 17 18 19 20 21 22 23 24 25 26 27 28 29 30 31 32 33 34 35 36 37 38 39 40 41 42 43 44 45 46 47 48 49 50
000
ASUS43 KDMX 061807
RWRIA

WEATHER ROUNDUP FOR IOWA
NATIONAL WEATHER SERVICE DES MOINES IA
1200 PM CST FRI MAR 06 2015

NOTE: "FAIR" INDICATES FEW OR NO CLOUDS BELOW 12,000 FEET WITH NO
SIGNIFICANT WEATHER AND/OR OBSTRUCTIONS TO VISIBILITY.

* - THESE STATIONS ARE NOT NWS STATIONS...THUS NOT UNDER NWS
QUALITY CONTROL.  THEY ALSO DO NOT REPORT WEATHER SUCH
AS PRECIPITATION OR FOG.

IAZ001>003-012>014-020>022-031>034-043>046-061900-
   NORTHWEST IOWA

CITY           SKY/WX    TMP DP  RH WIND       PRES   REMARKS
CARROLL *      SUNNY     46  23  39 SW14      30.16S
CHEROKEE *       N/A     44  22  41 W12       30.13S
DENISON *      SUNNY     45  19  36 SW8G14    30.15F
LE MARS *      SUNNY     52  19  28 SW12      30.13S
ORANGE CITY *  SUNNY     52  18  25 W16       30.11S
SHELDON *      SUNNY     45  21  39 W10G18    30.10S
SIOUX CITY       N/A     59  17  19 W13G18    30.12F
6HR MIN TEMP:  14; 6HR MAX TEMP:  59;

SPENCER          N/A     47  22  37 W14       30.10S
6HR MIN TEMP:  13; 6HR MAX TEMP:  47;

STORM LAKE *   SUNNY     43  23  45 W13       30.13S
$$

IAZ055>058-069>071-079>083-090>094-061900-
   SOUTHWEST IOWA

CITY           SKY/WX    TMP DP  RH WIND       PRES   REMARKS
ATLANTIC *     SUNNY     46  21  36 SW10      30.20S
AUDUBON *      SUNNY     46  21  36 SW13      30.18F
CLARINDA *     SUNNY     52  19  28 W10G17    30.25F
COUNCIL BLFS * SUNNY     48  19  32 SW12      30.20S
CRESTON *      SUNNY     46  21  36 W16       30.21S
HARLAN  *      SUNNY     45  21  39 SW9       30.22F
LAMONI           N/A     47  23  38 W13       30.22S
6HR MIN TEMP:  20; 6HR MAX TEMP:  47;

RED OAK *      SUNNY     50  19  29 W8G15     30.23S
SHENANDOAH *   SUNNY     52  19  28 SW13      30.24F
$$

IAZ047>049-059>061-072>074-084-061900-
   CENTRAL IOWA

CITY           SKY/WX    TMP DP  RH WIND       PRES   REMARKS
AMES             N/A     37  22  54 W9        30.17S WCI  30
6HR MIN TEMP:  16; 6HR MAX TEMP:  37;

ANKENY *       SUNNY     41  19  42 W8        30.19S
CHARITON *     SUNNY     45  21  39 W15       30.21S
DES MOINES       N/A     43  21  41 W12       30.20R
6HR MIN TEMP:  22; 6HR MAX TEMP:  43;

GRINNELL*        N/A     36  21  55 SW13      30.19S WCI  27
KNOXVILLE *    SUNNY     39  21  48 W12G17    30.19S WCI  32
MARSHALLTOWN     N/A     32  21  64 SW13      30.16S WCI  22
6HR MIN TEMP:  16; 6HR MAX TEMP:  32;

PELLA *          N/A     39  25  56 W9        30.21F WCI  33
PERRY *          N/A     43  25  49 W10       30.18S
$$

IAZ004>006-015-016-023>025-035-036-061900-
   NORTH CENTRAL IOWA

CITY           SKY/WX    TMP DP  RH WIND       PRES   REMARKS
ALGONA *       SUNNY     43  43 100 W12       30.11S
CLARION *      SUNNY     36  27  69 SW9       30.13S WCI  29
ESTHERVILLE      N/A     42  23  46 W12       30.08S
6HR MIN TEMP:  13; 6HR MAX TEMP:  42;

FORT DODGE *     N/A     39  25  56 SW9       30.15S WCI  33
MASON CITY       N/A     32  21  64 SW9       30.11F WCI  24
6HR MIN TEMP:  10; 6HR MAX TEMP:  32;

FOREST CITY *  SUNNY     34  21  60 SW9       30.10S WCI  26
IOWA FALLS *     N/A     34  23  64 SW9       30.15F WCI  26
$$

IAZ007>011-017>019-026>030-037>042-050>054-066-061900-
   NORTHEAST IOWA

CITY           SKY/WX    TMP DP  RH WIND       PRES   REMARKS
CEDAR RAPIDS     N/A     29  20  69 SW12      30.19F WCI  19
6HR MIN TEMP:   9; 6HR MAX TEMP:  29;

CHARLES CITY * SUNNY     27  19  74 SW12      30.13F WCI  16
CLINTON *        N/A     28  16  59 SW16      30.27S WCI  17
DECORAH *      SUNNY     25  14  63 SW8G16    30.12S WCI  16
DUBUQUE          N/A     23  13  65 S17       30.18F WCI   9
6HR MIN TEMP:   3; 6HR MAX TEMP:  23;

MONTICELLO *   SUNNY     25  16  68 S12       30.21F WCI  14
OELWEIN *      SUNNY     27  18  69 SW15      30.16F WCI  15
WATERLOO         N/A     29  20  69 SW13      30.16F WCI  19
6HR MIN TEMP:  11; 6HR MAX TEMP:  29;

$$

IAZ064-065-067-068-078-061900-
   EAST CENTRAL IOWA

CITY           SKY/WX    TMP DP  RH WIND       PRES   REMARKS
DAVENPORT        N/A     27  13  55 SW14      30.25F WCI  16
6HR MIN TEMP:   8; 6HR MAX TEMP:  27;

IOWA CITY        N/A     30  19  63 SW12      30.24F WCI  20
6HR MIN TEMP:   8; 6HR MAX TEMP:  30;

MT. PLEASANT *   N/A     34  20  57 SW14      30.24S WCI  24
MUSCATINE *    SUNNY     32  18  55 SW14      30.26F WCI  22
QUAD CITIES      N/A     28  15  58 SW12G25   30.25F WCI  18
6HR MIN TEMP:   8; 6HR MAX TEMP:  28;

$$

IAZ062-063-075>077-085>089-095>099-061900-
   SOUTHEAST IOWA

CITY           SKY/WX    TMP DP  RH WIND       PRES   REMARKS
BURLINGTON       N/A     31  20  63 SW13      30.25F WCI  21
6HR MIN TEMP:  10; 6HR MAX TEMP:  31;

FAIRFIELD *    SUNNY     37  21  52 W13       30.22S WCI  29
FORT MADISON * SUNNY     34  19  55 SW13G20   30.25F WCI  25
KEOKUK *       SUNNY     36  21  55 SW17G23   30.24F WCI  25
OSKALOOSA *      N/A     37  22  53 W13       30.21S WCI  29
CENTERVILLE *  SUNNY     41  23  48 SW16      30.23S
OTTUMWA          N/A     39  20  46 W15       30.20S WCI  31
6HR MIN TEMP:  16; 6HR MAX TEMP:  39;

WASHINGTON *   SUNNY     34  23  64 SW10G18   30.22F WCI  26
$$

ABBREVIATIONS USED IN REMARKS
   TC - TEMPERATURES IN CELSIUS
  WCI - WIND CHILL INDEX
   HX - HEAT INDEX
  VSB - VISIBILITY
$$




USA.gov is the U.S. government's official web portal to all federal, state and local government web resources and services.